Regional Weather Roundup
Issued by NWS

Home | Current Version | Previous Version | Graphics & Text | Print | Product List | Glossary On
Versions: 1 2 3 4 5 6 7 8 9 10 11 12 13 14 15 16 17 18 19 20 21 22 23 24 25 26 27 28 29 30 31 32 33 34 35 36 37 38 39 40 41 42 43 44 45 46 47 48 49 50
000
ASUS45 KBOU 312010
RWRCO

WEATHER ROUNDUP FOR COLORADO
NATIONAL WEATHER SERVICE PUEBLO CO
200 PM MDT FRI JUL 31 2015

NOTE: "FAIR" INDICATES FEW OR NO CLOUDS BELOW 12000 FEET WITH NO
SIGNIFICANT WEATHER AND/OR OBSTRUCTIONS TO VISIBILITY.

COZ001>005-013-030-031-312100-
...NORTHWEST COLORADO...

CITY           SKY/WX    TMP DP  RH WIND       PRES   REMARKS
CRAIG          SUNNY     91  32  12 VRB6      30.30F
HAYDEN         SUNNY     84  27  12 W12       30.33F
MEEKER         SUNNY     89  26  10 N9        30.32F
MOUNT WERNER   NOT AVBL
STEAMBOAT SPGS FAIR      85  24  10 W8        30.35F
WALDEN         FAIR      77  28  16 SW7       30.45F
$$

COZ006>008-011-312100-
...WEST CENTRAL VALLEYS...

CITY           SKY/WX    TMP DP  RH WIND       PRES   REMARKS
GRAND JUNCTION SUNNY     89  41  18 W5        30.21F
MONTROSE       MOSUNNY   87  40  19 VRB5      30.28F
EAGLE          MOSUNNY   88  30  12 SW10      30.31F
RIFLE          SUNNY     91  35  13 W9        30.24F
DELTA          NOT AVBL
NUCLA          FAIR      82  46  28 CALM      30.35F
$$

COZ017>023-064>068-312100-
...SOUTHWEST COLORADO...

CITY           SKY/WX    TMP DP  RH WIND       PRES   REMARKS
DURANGO        CLOUDY    76  52  43 CALM      30.39F
CORTEZ         CLOUDY    79  56  45 W5        30.33F
PAGOSA SPRINGS CLOUDY    73  50  45 CALM      30.48S
TELLURIDE      PTSUNNY   70  46  41 W8        30.57S
WOLF CREEK PAS NOT AVBL
$$

COZ009-010-012-014-032>034-037-058>063-312100-
...CENTRAL COLORADO...

CITY           SKY/WX    TMP DP  RH WIND       PRES   REMARKS
ASPEN          PTSUNNY   78  41  26 S9        30.42F
BUENA VISTA    FAIR      75  32  20 S8        30.45F
COPPER MTN     CLOUDY    64  32  29 W6        30.78F
BERTHOUD PASS  FAIR      46  36  66 E13G24    30.84F
COTTONWOOD PAS CLOUDY    68  34  28 CALM      30.62S
GUNNISON       MOSUNNY   75  39  27 N15G23    30.44S
KREMMLING      MOSUNNY   86  23  10 W3        30.39F
LEADVILLE      PTSUNNY   68  34  28 MISG      30.59F
MONARCH PASS   CLOUDY    55  36  47 E8        30.88S
SALIDA         NOT AVBL
NIWOT RIDGE    NOT AVBL
SUNLIGHT       MOSUNNY   68  34  28 SW3       30.71F
WILKERSON PASS CLOUDY    63  34  34 CALM      30.76S
$$

COZ069>075-312100-
...SAN LUIS VALLEY/SANGRE DE CRISTO MOUNTAINS...

CITY           SKY/WX    TMP DP  RH WIND       PRES   REMARKS
ALAMOSA        MOSUNNY   78  46  32 VRB6      30.42F
LA VETA PASS   MOSUNNY   64  45  48 MISG      30.65F
SAGUACHE       MOSUNNY   77  48  36 S9        30.46F
$$

COZ035-036-038>040-312100-
...NORTHERN COLORADO FRONT RANGE...

CITY           SKY/WX    TMP DP  RH WIND       PRES   REMARKS
DENVER INTL AP MOSUNNY   89  43  20 SW8       30.28F
DMNS CITY PARK NOT AVBL
AURORA         MOSUNNY   86  47  25 E9G21     30.29F
FRONT RANGE AP MOSUNNY   88  43  20 SE13G18   30.30F
ERIE MUNI ARPT FAIR      90  40  17 SE7       30.25F
BOULDER MUN AP FAIR      88  45  22 SE8       30.26F
CENTENNIAL     MOSUNNY   85  45  24 SE13G22   30.30F
BROOMFIELD     PTSUNNY   86  43  22 E6        30.31F
LOVELAND       MOSUNNY   86  55  35 S6        30.24F
LONGMONT       FAIR      92  43  18 S8        30.26F
$$

COZ041-046-047-076>085-087-088-312100-
...PIKES PEAK/PALMER DIVIDE AND SOUTHERN FOOTHILLS...

CITY           SKY/WX    TMP DP  RH WIND       PRES   REMARKS
COLO. SPRINGS  PTSUNNY   83  50  31 SE12      30.36F
A. F. ACADEMY  MOSUNNY   81  50  34 S12G20    30.36F
ELLICOTT       FAIR     N/A N/A N/A VRB3      30.35F
FALCON         FAIR      78  48  34 E7        30.42F
FORT CARSON    PTSUNNY   80  53  39 VRB2      30.33F
LIMON          MOSUNNY   84  55  36 SE13      30.31F
MONUMENT HILL  SUNNY     77  46  33 S14G21    30.42F
TRINIDAD       PTSUNNY   86  55  34 VRB6G18   30.30F
$$

COZ042>045-048>051-090-091-312100-
...NORTHEAST COLORADO...

CITY           SKY/WX    TMP DP  RH WIND       PRES   REMARKS
GREELEY ARPT   MOSUNNY   91  46  21 E9        30.24F
AKRON          MOSUNNY   88  46  23 SE9       30.25F
BURLINGTON     MOSUNNY   85  58  39 S9G18     30.26F
WRAY           FAIR      92  50  23 E6        30.21F
STERLING       FAIR      93  48  21 S6        30.19F
HOLYOKE        NOT AVBL
FORT MORGAN    FAIR      90  43  19 SE13      30.24F
$$

COZ086-089-092>099-312100-
...SOUTHEAST COLORADO...

CITY           SKY/WX    TMP DP  RH WIND       PRES   REMARKS
PUEBLO         MOSUNNY   90  58  33 S8        30.24F
LA JUNTA       SUNNY     88  58  36 NE10      30.22F
LAMAR          MOSUNNY   88  60  38 S14G24    30.20F
SPRINGFIELD      N/A     81  65  58 S8G17     30.25F
$$



USA.gov is the U.S. government's official web portal to all federal, state and local government web resources and services.